Time,TemperatureF,DewpointF,PressureIn,WindDirection,WindDirectionDegrees,WindSpeedMPH,WindSpeedGustMPH,Humidity,HourlyPrecipIn,Conditions,Clouds,dailyrainin,SoftwareType,DateUTC
2013-12-27 00:19:00,4.1,-1.2,30.03,NNE,22,0.0,2.7,78,0.00,,SKC,0.00,VWS V14.01,2013-12-27 06:19:00,
2013-12-27 00:39:00,5.9,0.5,30.03,NNW,338,0.0,3.5,78,0.00,,SKC,0.00,VWS V14.01,2013-12-27 06:39:00,
2013-12-27 00:59:00,7.2,1.8,30.03,NW,315,1.0,3.9,78,0.00,,SKC,0.00,VWS V14.01,2013-12-27 06:59:00,
2013-12-27 01:19:00,8.2,2.8,30.03,North,0,0.0,3.5,78,0.00,,SKC,0.00,VWS V14.01,2013-12-27 07:19:00,
2013-12-27 01:39:00,9.1,3.7,30.03,NNW,338,0.0,2.7,78,0.00,,SKC,0.00,VWS V14.01,2013-12-27 07:39:00,
2013-12-27 01:59:00,10.0,4.6,30.03,NNW,338,0.0,2.3,78,0.00,,SKC,0.00,VWS V14.01,2013-12-27 07:59:00,
2013-12-27 02:19:00,10.8,5.3,30.03,WNW,292,0.0,2.7,78,0.00,,SKC,0.00,VWS V14.01,2013-12-27 08:19:00,
2013-12-27 02:39:00,11.7,6.1,30.03,East,90,0.0,5.1,78,0.00,,SKC,0.00,VWS V14.01,2013-12-27 08:39:00,
2013-12-27 02:59:00,12.7,7.2,30.03,NNE,22,0.0,2.3,78,0.00,,SKC,0.00,VWS V14.01,2013-12-27 08:59:00,
2013-12-27 03:19:00,14.4,10.7,30.03,NW,315,1.5,2.7,85,0.00,,SKC,0.00,VWS V14.01,2013-12-27 09:19:00,
2013-12-27 03:39:00,15.1,11.7,30.03,North,0,0.0,3.5,86,0.00,,SKC,0.00,VWS V14.01,2013-12-27 09:39:00,
2013-12-27 03:59:00,15.8,12.6,30.03,ENE,68,0.0,5.1,87,0.00,,SKC,0.00,VWS V14.01,2013-12-27 09:59:00,
2013-12-27 04:19:00,16.5,13.6,30.00,SSE,158,1.8,5.5,88,0.00,,SKC,0.00,VWS V14.01,2013-12-27 10:19:00,
2013-12-27 04:39:00,16.9,14.2,30.00,SSE,158,1.5,6.7,89,0.00,,SKC,0.00,VWS V14.01,2013-12-27 10:39:00,
2013-12-27 04:59:00,17.6,15.2,30.00,SSW,202,3.6,6.7,90,0.00,,SKC,0.00,VWS V14.01,2013-12-27 10:59:00,
2013-12-27 05:19:00,18.1,15.7,30.00,SSE,158,1.8,5.9,90,0.00,,SKC,0.00,VWS V14.01,2013-12-27 11:19:00,
2013-12-27 05:39:00,18.3,16.1,29.97,SSW,202,3.3,7.4,91,0.00,,SKC,0.00,VWS V14.01,2013-12-27 11:39:00,
2013-12-27 05:59:00,19.0,17.1,29.97,South,180,3.1,7.0,92,0.00,,SKC,0.00,VWS V14.01,2013-12-27 11:59:00,
2013-12-27 06:19:00,19.9,18.2,29.97,SSE,158,3.6,10.6,93,0.00,,SKC,0.00,VWS V14.01,2013-12-27 12:19:00,
2013-12-27 06:39:00,20.1,18.4,29.97,WSW,248,1.5,10.2,93,0.00,,SKC,0.00,VWS V14.01,2013-12-27 12:39:00,
2013-12-27 06:59:00,20.1,18.2,30.00,NNE,22,1.3,11.0,92,0.00,,SKC,0.00,VWS V14.01,2013-12-27 12:59:00,
2013-12-27 07:19:00,20.3,18.6,29.97,WSW,248,4.1,11.4,93,0.00,,SKC,0.00,VWS V14.01,2013-12-27 13:19:00,
2013-12-27 07:39:00,20.3,18.6,29.94,South,180,2.3,9.4,93,0.00,,SKC,0.00,VWS V14.01,2013-12-27 13:39:00,
2013-12-27 07:59:00,20.5,18.8,29.97,SSE,158,2.3,13.3,93,0.00,,SKC,0.00,VWS V14.01,2013-12-27 13:59:00,
2013-12-27 08:19:00,21.0,19.6,29.94,WNW,292,3.1,10.2,94,0.00,,SKC,0.00,VWS V14.01,2013-12-27 14:19:00,
2013-12-27 08:39:00,21.6,20.1,29.94,WSW,248,1.5,11.4,94,0.00,,SKC,0.00,VWS V14.01,2013-12-27 14:39:00,
2013-12-27 08:59:00,21.9,20.7,29.94,SSE,158,4.9,13.7,95,0.00,,SKC,0.00,VWS V14.01,2013-12-27 14:59:00,
2013-12-27 09:19:00,22.3,21.1,29.94,SSW,202,3.3,10.6,95,0.00,,SKC,0.00,VWS V14.01,2013-12-27 15:19:00,
2013-12-27 09:39:00,22.8,21.9,29.94,SSW,202,2.8,13.3,96,0.00,,SKC,0.00,VWS V14.01,2013-12-27 15:39:00,
2013-12-27 09:59:00,23.0,22.0,29.91,WSW,248,6.7,18.0,96,0.00,,SKC,0.00,VWS V14.01,2013-12-27 15:59:00,
2013-12-27 10:19:00,23.5,22.8,29.91,SSE,158,6.2,17.6,97,0.00,,SKC,0.00,VWS V14.01,2013-12-27 16:19:00,
2013-12-27 10:39:00,24.4,24.0,29.88,SSW,202,2.8,14.1,98,0.00,,SKC,0.00,VWS V14.01,2013-12-27 16:39:00,
2013-12-27 10:59:00,25.7,25.2,29.85,SSE,158,6.4,20.8,98,0.00,,SKC,0.00,VWS V14.01,2013-12-27 16:59:00,
2013-12-27 11:19:00,27.3,26.6,29.82,SSW,202,2.8,16.8,97,0.00,,SKC,0.00,VWS V14.01,2013-12-27 17:19:00,
2013-12-27 11:39:00,28.2,27.2,29.82,SSW,202,4.4,13.7,96,0.00,,SKC,0.00,VWS V14.01,2013-12-27 17:39:00,
2013-12-27 11:59:00,29.5,28.2,29.79,SE,135,4.1,18.0,95,0.00,,SKC,0.00,VWS V14.01,2013-12-27 17:59:00,
2013-12-27 12:19:00,30.4,28.1,29.79,WNW,292,4.9,15.3,91,0.00,,SKC,0.00,VWS V14.01,2013-12-27 18:19:00,
2013-12-27 12:39:00,30.6,28.0,29.79,ESE,112,3.3,11.0,90,0.00,,SKC,0.00,VWS V14.01,2013-12-27 18:39:00,
2013-12-27 12:59:00,32.5,29.1,29.79,SSE,158,3.3,10.6,87,0.00,,SKC,0.00,VWS V14.01,2013-12-27 18:59:00,
2013-12-27 13:19:00,33.1,28.5,29.76,SW,225,3.3,16.8,83,0.00,,SKC,0.00,VWS V14.01,2013-12-27 19:19:00,
2013-12-27 13:39:00,33.4,27.6,29.76,WNW,292,3.3,18.0,79,0.00,,SKC,0.00,VWS V14.01,2013-12-27 19:39:00,
2013-12-27 13:59:00,32.7,26.6,29.76,WSW,248,4.9,17.2,78,0.00,,SKC,0.00,VWS V14.01,2013-12-27 19:59:00,
2013-12-27 14:19:00,32.2,26.1,29.76,West,270,4.4,13.3,78,0.00,,SKC,0.00,VWS V14.01,2013-12-27 20:19:00,
2013-12-27 14:39:00,32.2,26.4,29.74,WSW,248,2.3,11.4,79,0.00,,SKC,0.00,VWS V14.01,2013-12-27 20:39:00,
2013-12-27 14:59:00,32.0,26.2,29.74,NW,315,4.1,11.4,79,0.00,,SKC,0.00,VWS V14.01,2013-12-27 20:59:00,
2013-12-27 15:19:00,32.4,26.9,29.76,SSW,202,3.3,11.4,80,0.00,,SKC,0.00,VWS V14.01,2013-12-27 21:19:00,
2013-12-27 15:39:00,32.5,27.1,29.76,SW,225,4.1,9.8,80,0.00,,SKC,0.00,VWS V14.01,2013-12-27 21:39:00,
2013-12-27 15:59:00,32.2,26.7,29.76,SSE,158,1.5,9.8,80,0.00,,SKC,0.00,VWS V14.01,2013-12-27 21:59:00,
2013-12-27 16:19:00,30.9,25.8,29.79,SSW,202,1.8,8.2,81,0.00,,SKC,0.00,VWS V14.01,2013-12-27 22:19:00,
2013-12-27 16:39:00,30.2,25.4,29.79,WNW,292,0.0,7.8,82,0.00,,SKC,0.00,VWS V14.01,2013-12-27 22:39:00,
2013-12-27 16:59:00,28.9,24.7,29.79,WSW,248,0.0,3.5,84,0.00,,SKC,0.00,VWS V14.01,2013-12-27 22:59:00,
2013-12-27 17:19:00,28.4,24.8,29.79,WSW,248,0.0,4.3,86,0.00,,SKC,0.00,VWS V14.01,2013-12-27 23:19:00,
2013-12-27 17:39:00,27.3,23.7,29.79,WSW,248,0.0,2.3,86,0.00,,SKC,0.00,VWS V14.01,2013-12-27 23:39:00,
2013-12-27 17:59:00,26.1,22.7,29.79,WNW,292,0.0,0.0,87,0.00,,SKC,0.00,VWS V14.01,2013-12-27 23:59:00,
2013-12-27 18:19:00,25.3,22.3,29.79,ENE,68,0.0,2.3,88,0.00,,SKC,0.00,VWS V14.01,2013-12-28 00:19:00,
2013-12-27 18:39:00,24.6,21.9,29.79,SSE,158,0.0,2.0,89,0.00,,SKC,0.00,VWS V14.01,2013-12-28 00:39:00,
2013-12-27 18:59:00,23.9,21.1,29.82,NNE,22,0.0,0.0,89,0.00,,SKC,0.00,VWS V14.01,2013-12-28 00:59:00,
2013-12-27 19:19:00,23.4,20.9,29.82,NNE,22,0.0,0.0,90,0.00,,SKC,0.00,VWS V14.01,2013-12-28 01:19:00,
2013-12-27 19:39:00,23.0,20.8,29.82,NNE,22,0.0,0.0,91,0.00,,SKC,0.00,VWS V14.01,2013-12-28 01:39:00,
2013-12-27 19:59:00,22.6,20.4,29.82,NW,315,0.0,0.0,91,0.00,,SKC,0.00,VWS V14.01,2013-12-28 01:59:00,
2013-12-27 20:19:00,22.6,20.4,29.85,WNW,292,0.0,0.0,91,0.00,,SKC,0.00,VWS V14.01,2013-12-28 02:19:00,
2013-12-27 20:39:00,23.0,21.0,29.85,NNW,338,0.0,2.7,92,0.00,,SKC,0.00,VWS V14.01,2013-12-28 02:39:00,
2013-12-27 20:59:00,23.9,22.4,29.85,NW,315,0.0,3.9,94,0.00,,SKC,0.00,VWS V14.01,2013-12-28 02:59:00,
2013-12-27 21:19:00,23.5,21.8,29.85,WNW,292,0.0,2.7,93,0.00,,SKC,0.00,VWS V14.01,2013-12-28 03:19:00,
2013-12-27 21:39:00,22.8,21.1,29.85,ENE,68,0.0,4.3,93,0.00,,SKC,0.00,VWS V14.01,2013-12-28 03:39:00,
2013-12-27 21:59:00,22.8,21.1,29.85,NNE,22,0.0,0.0,93,0.00,,SKC,0.00,VWS V14.01,2013-12-28 03:59:00,
2013-12-27 22:19:00,23.2,21.7,29.85,NW,315,0.0,0.0,94,0.00,,SKC,0.00,VWS V14.01,2013-12-28 04:19:00,
2013-12-27 22:39:00,23.5,22.1,29.85,SW,225,0.0,0.0,94,0.00,,SKC,0.00,VWS V14.01,2013-12-28 04:39:00,
2013-12-27 22:59:00,22.8,21.1,29.85,NNE,22,0.0,0.0,93,0.00,,SKC,0.00,VWS V14.01,2013-12-28 04:59:00,
2013-12-27 23:19:00,22.1,20.1,29.85,NNE,22,0.0,0.0,92,0.00,,SKC,0.00,VWS V14.01,2013-12-28 05:19:00,
2013-12-27 23:39:00,21.2,19.2,29.88,NNE,22,0.0,0.0,92,0.00,,SKC,0.00,VWS V14.01,2013-12-28 05:39:00,
2013-12-27 23:59:00,20.3,18.1,29.85,NNE,22,0.0,0.0,91,0.00,,SKC,0.00,VWS V14.01,2013-12-28 05:59:00,